DELTA 1 DEB, 21294

Orbit data source: Space-Track

DELTA 1 DEB, 21294 is space debris in SSO originally from a launch on Thu, 12 Jun 1975 UTC launched from the Air Force Western Test Range (AFWTR). Debris objects in space refer to the collection of defunct objects orbiting the Earth. Examples of debris include non-operational satellites, rocket bodies, and fragments generated from explosions, collisions, or faulty payload assembly.

Loading next visibility...
DELTA 1 DEB details
Identifier
21294, 1975-052AF
Orbit
SSO
Last TLE update6 hours ago
Origin
Flag of USGSFC (US)
ManufacturerUnknown
MissionSpacecraft
Bus & MotorUnknown
MassUnknown
Launch date (UTC)
1975-06-12 (50 years ago)
Launch vehicleUnknown
Launch site
Air Force Western Test Range (AFWTR)
Object type
Payload
Rocket body
Debris
Shape & HBRUnknown
Radar Cross Section0.260 m², Medium (>0.1 m² and < 1m²)

Expand to show TLE details & history

TLE from 6 hours ago
0 DELTA 1 DEB
1 21294U 75052AF  24361.29074244  .00000065  00000-0  32732-3 0  9996
2 21294  99.8045 185.6515 0250403 315.2779 220.4320 12.94420247587002
Epoch: 2024-12-26T06:58Z
Definitive object data (Epoch: 2024-12-26T06:58:40.146Z)
Latitude5.94426°
Longitude166.73791°
Altitude1,434.193 km
Speed7.075 km/s
True Right ascension00h 26m 42s
True Declination5° 54' 43"
Sunlit
Object was in daylight at TLE epoch
Visualization TLE readout
Latitude-35.85889°
Longitude158.78799°
Altitude1,321.108 km
Speed7.185 km/s
Apparent Right ascension00h 00m 27s
Apparent Declination-37° 32' 19"
Sunlit
Object is in daylight
Visualization observer readout
Local Sidereal Time12:07:32
Azimuth30.707° NE
Elevation-87.251°
Doppler factor1
Orbital elements
Apogee altitude1,473.207 km
Perigee altitude1,089.612 km
Semi-major axis7,659.546 km
Eccentricity0.0250403
Inclination99.8045°
RAAN185.6515°
Arg. of periapsis315.2779°
True anomaly218.61471°
Mean anomaly220.432°
Eccentric anomaly219.51905°
Mean motion3.23771 °/min
BSTAR0.00032732
Orbital period111.19 mins
Loading maneuver chart data...
Loading historical data...
Loading historical data...
Loading historical data...
Loading historical data...
Loading historical data...
Loading historical data...
Loading historical data...

DELTA 1 DEB Visibility forecast

Observer location: undefined°, undefined

Span
Click to sort rows by Start time (UTC) header in descending order
Start Az.
Max El. time (UTC)
Max El. Az.
Max El.
End time (UTC)
End Az.
12 mins2024-12-26 13:34:58.592Z210.274° SW2024-12-26 13:40:58.592Z272.465° WNW26.481°2024-12-26 13:46:58.592Z324.782° NNW
6 mins2024-12-26 23:27:58.592Z70.423° E2024-12-26 23:29:58.592Z85.555° E13.811°2024-12-26 23:33:58.592Z114.683° SE
15 mins2024-12-27 01:13:58.592Z19.645° NNE2024-12-27 01:20:58.592Z118.391° SE44.089°2024-12-27 01:28:58.592Z189.597° SSW
12 mins2024-12-27 03:03:58.592Z348.113° N2024-12-27 03:08:58.592Z306.965° NW23.894°2024-12-27 03:15:58.592Z250.751° W
13 mins2024-12-27 11:51:58.592Z141.148° SSE2024-12-27 11:56:58.592Z82.885° E40.131°2024-12-27 12:04:58.592Z352.599° N
|